CZ-4C DEB, 45483

Orbit data source: Space-Track

CZ-4C DEB, 45483 is space debris in LEO originally from a launch on Tue, 10 Apr 2018 UTC launched from the Jiuquan Satellite Launch Center, China (JSC). Debris objects in space refer to the collection of defunct objects orbiting the Earth. Examples of debris include non-operational satellites, rocket bodies, and fragments generated from explosions, collisions, or faulty payload assembly.

Loading next visibility...
Identifier
45483, 2018-034L
Orbit
LEO
Country
Flag of CNCN / PRC
Related business
Manufacturer
Unknown
Mission
Spacecraft
Bus & Motor
Unknown
Mass
Unknown
Launch date (UTC)
2018-04-10 (8 years ago)
Launch vehicle
Unknown
Launch site
Jiuquan Satellite Launch Center, China (JSC)
Object type
Payload
Rocket body
Debris
Shape & HBR
Unknown shape, 0.1 m
Radar Cross Section
Small (<0.1 m²)

Expand to show TLE details & history
Last TLE update: 3 days ago

TLE from 3 days ago
0 CZ-4C DEB
1 45483U 18034L   25305.81101940  .00000091  00000-0  25724-3 0  9992
2 45483  63.4000 332.7371 0249826   6.4609 353.9538 13.44288583333945
Epoch: 2025-11-01T19:27Z
TLE epoch observation values (Epoch: 2025-11-01T19:27:52.076Z)
Latitude
Longitude
-0.56563°
Altitude
909.53 km
Speed
7.489 km/s
True Right ascension
22h 10m 56s
True Declination
0° 00' 00"
Sunlit
Object was in daylight at epoch
Visualization orbit readout
Latitude
Unknown
Longitude
Unknown
Altitude
Unknown
Speed
Unknown
Apparent Right ascension
Unknown
Apparent Declination
Unknown
Sunlit
N/A
Visualization observer readout
Local Sidereal Time
11:02:38
Azimuth
Unknown
Elevation
Unknown
Doppler factor
Unknown
Orbital elements
Apogee altitude
1,278.803 km
Perigee altitude
905.548 km
Semi-major axis
7,470.312 km
Eccentricity
0.02498
Inclination
63.4°
RAAN
332.7371°
Arg. of periapsis
6.4609°
True anomaly
353.64261°
Mean anomaly
353.9538°
Eccentric anomaly
353.79919°
Mean motion
3.36151 °/min
Orbital period
107.09 mins
BSTAR
0.00025724
Loading maneuver chart data...
Computing Atmospheric mass density...
Loading historical data...
Loading historical data...
Loading historical data...
Loading historical data...
Loading historical data...
Loading historical data...
Loading historical data...

Documentation

Showing up to 5 results
|